Location: Alincthun
(50.7310°N, 1.8022°E)
Time: 03:36:48
(UTC+00:00)

ADEOS - Pass Details

Date: 17 February 2020
Orbit: 793 x 794 km, 98.9° (Epoch: 09 April)

Event Time Altitude Azimuth Distance (km) Brightness Sun altitude
Rises 04:17:10 0° 14° (NNE) 3,310 7.1 -26.6°
Reaches altitude 10° 04:19:31 10° 13° (NNE) 2,376 6.3 -26.3°
Maximum altitude 04:24:45 78° 289° (WNW) 819 3.4 -25.5°
Enters shadow 04:25:01 75° 253° (WSW) 827 3.4 -25.4°
